Regional Weather Roundup
Issued by NWS

Home | Current Version | Previous Version | Graphics & Text | Print | Product List | Glossary On
Versions: 1 2 3 4 5 6 7 8 9 10 11 12 13 14 15 16 17 18 19 20 21 22 23 24 25 26 27 28 29 30 31 32 33 34 35 36 37 38 39 40 41 42 43 44 45 46 47 48 49 50
000
ASUS43 KMKX 171410
RWRWI

WISCONSIN REGIONAL WEATHER ROUNDUP
NATIONAL WEATHER SERVICE MILWAUKEE/SULLIVAN WI
800 AM CST SAT FEB 17 2018

NOTE: "FAIR" INDICATES FEW OR NO CLOUDS BELOW 12,000 FEET WITH NO
SIGNIFICANT WEATHER AND/OR OBSTRUCTIONS TO VISIBILITY.

WIZ001-002-006>008-014>016-023>028-171500-
NORTHWEST WISCONSIN

CITY           SKY/WX    TMP DP  RH WIND       PRES   REMARKS
SUPERIOR ARPT  FAIR      18  11  74 SW8       29.81S WCI   8
ASHLAND        FAIR      19  12  74 S12       29.82R WCI   7
HAYWARD        CLOUDY    18  10  71 SW8       29.83R WCI   8
SIREN          FAIR      22  14  70 SW7       29.85R WCI  14
CUMBERLAND     CLOUDY    19  12  73 SW8       29.84S WCI   9
RICE LAKE      CLOUDY    18  12  75 S5        29.88R WCI  11
CHETEK         CLOUDY    19  10  68 S3        29.88R
LADYSMITH      CLOUDY    15   8  74 S3        29.88R
EAU CLAIRE     LGT SNOW  22  12  65 SW6       29.90R WCI  14
MENOMONIE      LGT SNOW  22  16  77 S9        29.90R WCI  12
NEW RICHMOND   FLURRIES  23  13  67 SW6       29.88R WCI  16
OSCEOLA        CLOUDY    20  15  78 S3        29.90S
$$

WIZ003>005-009-010-017-018-171500-
NORTH CENTRAL WISCONSIN

CITY           SKY/WX    TMP DP  RH WIND       PRES   REMARKS
MANITOWISH WTR FLURRIES  15   7  71 SW12      29.80S WCI   1
ARBOR VITAE    MOCLDY    14   7  73 SW7       29.82R WCI   4
WOODRUFF       MOCLDY    14   7  73 SW7       29.82R WCI   4
RHINELANDER    MOCLDY    13   5  70 SW12      29.84S WCI  -1
EAGLE RIVER    FAIR      13   4  66 SW9       29.82R WCI   0
LAND O LAKES   FAIR      13   5  69 SW9       29.81R WCI   1
PHILLIPS       CLOUDY    16   7  68 SW9       29.83R WCI   4
TOMAHAWK       CLOUDY    12   5  71 S3        29.86S
MEDFORD        CLOUDY    14   5  67 S8        29.86F WCI   3
MERRILL        MOCLDY    15   6  66 SW7       29.89S WCI   5
$$

WIZ029-030-035-036-043>047-171500-
CENTRAL WISCONSIN

CITY           SKY/WX    TMP DP  RH WIND       PRES   REMARKS
WAUSAU         FAIR      15   6  67 S6        29.89S WCI   6
MOSINEE        CLOUDY    18   9  68 S12       29.92S WCI   5
MARSHFIELD     CLOUDY    18   8  65 S9        29.89S WCI   7
STEVENS POINT  CLOUDY    17   6  63 SW8       29.94S WCI   6
WAUPACA        FAIR      22   8  53 S10G17    29.97F WCI  11
WAUTOMA        CLOUDY    19   8  62 S8        29.98F WCI   9
WISC RAPIDS    CLOUDY    20   6  55 SW12      29.96R WCI   8
CAMP DOUGLAS   CLOUDY    21   7  53 SW8       29.95F WCI  12
$$

WIZ011>013-019>022-031-037>040-048>050-171500-
NORTHEAST WISCONSIN

CITY           SKY/WX    TMP DP  RH WIND       PRES   REMARKS
ANTIGO         FAIR      13   4  68 SW10      29.88R WCI   0
SHAWANO        PTSUNNY   20   8  58 SW6       29.95F WCI  13
OCONTO         FAIR      19   6  56 SW9       29.98S WCI   8
STURGEON BAY   PTSUNNY   22   6  50 SW14      29.97F WCI   9
GREEN BAY      FAIR      20   7  57 S12       29.99F WCI   8
MANITOWOC      FAIR      22   3  44 S10       30.02F WCI  11
APPLETON       CLOUDY    18   5  57 SW14      29.97F WCI   4
CLINTONVILLE   CLOUDY    19   7  58 SW9       29.96S WCI   9
OSHKOSH        FAIR      19   7  59 SW12      29.99F WCI   7
$$

WIZ032>034-041-042-053>061-171500-
SOUTHWEST WISCONSIN

CITY           SKY/WX    TMP DP  RH WIND       PRES   REMARKS
LA CROSSE      CLOUDY    23  10  57 SE8       29.98R WCI  14
SPARTA         FAIR      22   9  57 SW3       29.98R
VIROQUA        FAIR      21  11  64 SW12      29.95R WCI   9
BOSCOBEL       FAIR      23  10  57 SW5       30.02F WCI  17
PRAIRIE DU CHI CLOUDY    23   9  54 CALM      30.01F
PLATTEVILLE    FAIR      18  11  74 S3        30.02S
$$

WIZ056-057-062-063-064-067-068-171500-
SOUTH CENTRAL WISCONSIN

CITY           SKY/WX    TMP DP  RH WIND       PRES   REMARKS
REEDSBURG      PTSUNNY   20   8  60 S8        29.99F WCI  10
BARABOO/DELLS  FAIR      20   8  59 SW10      29.98F WCI   9
LONE ROCK      PTSUNNY   21  11  65 CALM      30.03F
MINERAL POINT  CLOUDY    21  12  68 S8        30.00F WCI  12
MADISON        CLOUDY    18   7  62 S8        30.04R WCI   8
MIDDLETON      CLOUDY    21   9  59 SW10      30.03F WCI  10
WATERTOWN      FAIR      18  10  71 S3        30.04F
MONROE         CLOUDY    19  10  68 S13       30.01F WCI   7
JANESVILLE     MOSUNNY   19   7  58 SW8       30.06R WCI   9
$$

WIZ051-052-058>065-066-070>072-171500-
SOUTHEAST WISCONSIN

CITY           SKY/WX    TMP DP  RH WIND       PRES   REMARKS
MILWAUKEE      CLOUDY    21   6  52 SW6       30.06F WCI  13
WAUKESHA       SUNNY     16   5  62 S10       30.06S WCI   3
MILWAUKEE/TIMM SUNNY     19   1  45 SW13      30.06F WCI   7
RACINE         FAIR      19   6  57 S8        30.09F WCI   9
BURLINGTON     FAIR      18   5  57 S7        30.06S WCI   8
KENOSHA        FAIR      19   6  57 S8        30.08F WCI   9
FOND DU LAC    FAIR      20   6  55 S15       30.00F WCI   6
SHEBOYGAN      FAIR      20   7  57 S10       30.03S WCI   9
WEST BEND      FAIR      21   1  42 S7        30.03S WCI  13
JUNEAU         FAIR      17   8  65 S10       30.04F WCI   5
$$

LSZ147-162-171500-
LAKE SUPERIOR

STATION/POSITION TIME  TEMP    WIND        PRES    WAVE
                       AIR SEA DIR/SP/G            HT/PER
                 (UTC) (F)     (DEG/KT/KT) (MB)    (FT/S)
DEVILS ISLAND    1400   20     230/ 16/ 20 1009.7R
SAXON HARBOR     1340   20     190/  9/ 14 1009.5R
$$

LMZ867-665-643>646-171500-
LAKE MICHIGAN

STATION/POSITION TIME  TEMP    WIND        PRES    WAVE
                       AIR SEA DIR/SP/G            HT/PER
                 (UTC) (F)     (DEG/KT/KT) (MB)    (FT/S)
NORTHPORT PIER   1340   19                 1014.6S
KEWAUNEE LAKESHO 1348   22     210/  8/ 12 1015.4F
SHEBOYGAN LAKESH 1400   21     210/ 15/ 17 1018.1F
PORT WASHINGTON  1340   20     240/  3/  9 1019.3R
MILWAUKEE LAKESH 1350   22     220/ 10/ 12   N/A
KENOSHA   LAKESH 1400   19     200/  9/ 13 1019.0
$$

TC  - TEMPERATURE IN CELSIUS
VSB - VISIBILITY IN STATUTE MILES
WCI - WIND CHILL INDEX
HX  - HEAT INDEX





USA.gov is the U.S. government's official web portal to all federal, state and local government web resources and services.